Weather History for Tampa Macdill AFB, FL

Change the Weather History Date:

Friday, December 28, 2012

  Actual Average Record
Temperature  
Mean Temperature 56 °F -  
Max Temperature 72 °F 67 °F 80 °F (2007)
Min Temperature 40 °F 50 °F 28 °F (2010)
Degree Days  
Heating Degree Days 9    
Growing Degree Days 6 (Base 50)    
Moisture  
Dew Point 59 °F    
Average Humidity 95    
Maximum Humidity 100    
Minimum Humidity 49    
Precipitation  
Precipitation 0.83 in - - ()
Sea Level Pressure  
Sea Level Pressure 30.00 in    
Wind  
Wind Speed 5 mph (ESE)    
Max Wind Speed 12 mph    
Max Gust Speed -    
Visibility 7 miles    
Events Rain    
Averages and records for this station are not official NWS values.
T = Trace of Precipitation, MM = Missing Value Source: NWS Daily Summary

Daily Weather History Graph

Daily Weather History Graph

Search for Another Location

Airport:

Trip Planner

Search our weather history database for the weather conditions in past years. The results will help you decide how hot, cold, wet, or windy it might be!

Date:

Astronomy

Dec. 28, 2012 Rise Set
Actual Time 7:20 AM EST 5:43 PM EST
Civil Twilight 6:54 AM EST 6:09 PM EST
Nautical Twilight 6:25 AM EST 6:38 PM EST
Astronomical Twilight 5:56 AM EST 7:07 PM EST
Moon 6:14 PM EST 7:17 AM EST
Length of Visible Light 11h 15m
Length of Day
10h 23m
Full, 100% of the Moon is Illuminated
Dec 28
Full
Jan 4
Last Quarter
Jan 11
New
Jan 18
First Quarter
Jan 26
Full

Hourly Weather History & Observations

Time (EST) Temp. Windchill Dew Point Humidity Pressure Visibility Wind Dir Wind Speed Gust Speed Precip Events Conditions
12:55 AM 44.4 °F 42.0 °F 43.9 °F 98% 30.09 in 10.0 mi NE 4.6 mph - N/A   Clear
1:55 AM 43.9 °F 41.3 °F 43.3 °F 98% 30.09 in 10.0 mi NNE 4.6 mph - N/A   Clear
2:55 AM 44.2 °F 41.8 °F 44.1 °F 99% 30.09 in 10.0 mi NE 4.6 mph - N/A   Clear
3:55 AM 43.5 °F 40.9 °F 43.3 °F 99% 30.08 in 10.0 mi NE 4.6 mph - N/A   Clear
4:38 AM 41.0 °F 37.1 °F 41.0 °F 100% 30.07 in 7.0 mi ENE 5.8 mph - N/A   Clear
4:55 AM 41.4 °F 36.2 °F 41.2 °F 99% 30.07 in 8.0 mi ENE 8.1 mph - N/A   Clear
5:14 AM 41.0 °F 37.1 °F 41.0 °F 100% 30.08 in 7.0 mi East 5.8 mph - N/A   Clear
5:25 AM 41.0 °F 36.4 °F 41.0 °F 100% 30.07 in 8.0 mi East 6.9 mph - N/A   Clear
5:28 AM 41.0 °F 37.1 °F 41.0 °F 100% 30.07 in 9.0 mi ESE 5.8 mph - N/A   Clear
5:55 AM 40.3 °F 36.3 °F 40.1 °F 99% 30.07 in 10.0 mi East 5.8 mph - N/A   Clear
6:42 AM 41.0 °F 38.0 °F 41.0 °F 100% 30.07 in 8.0 mi ENE 4.6 mph - N/A   Clear
6:49 AM 41.0 °F 38.0 °F 41.0 °F 100% 30.08 in 8.0 mi ENE 4.6 mph - N/A   Clear
6:55 AM 41.0 °F 38.0 °F 40.8 °F 99% 30.08 in 10.0 mi ENE 4.6 mph - N/A   Clear
7:55 AM 42.3 °F 38.6 °F 41.9 °F 99% 30.09 in 10.0 mi ENE 5.8 mph - N/A   Clear
8:55 AM 50.0 °F - 49.1 °F 97% 30.09 in 10.0 mi East 11.5 mph - N/A   Clear
9:55 AM 55.2 °F - 51.3 °F 87% 30.11 in 10.0 mi East 9.2 mph - N/A   Clear
10:55 AM 60.6 °F - 49.5 °F 67% 30.10 in 10.0 mi East 8.1 mph - N/A   Clear
11:55 AM 63.9 °F - 50.2 °F 61% 30.07 in 10.0 mi ESE 6.9 mph - N/A   Clear
12:55 PM 69.1 °F - 49.6 °F 50% 30.03 in 10.0 mi SE 6.9 mph - N/A   Scattered Clouds
1:55 PM 70.5 °F - 50.7 °F 49% 29.99 in 10.0 mi SE 5.8 mph - N/A   Overcast
2:55 PM 72.1 °F - 54.0 °F 53% 29.98 in 10.0 mi Calm Calm - N/A   Overcast
3:55 PM 70.7 °F - 57.4 °F 63% 29.98 in 10.0 mi SSE 4.6 mph - N/A   Overcast
4:23 PM 69.8 °F - 57.2 °F 64% 29.98 in 10.0 mi ESE 3.5 mph - N/A Rain Light Rain
4:31 PM 69.8 °F - 60.8 °F 73% 29.98 in 9.0 mi Calm Calm - N/A Rain Light Rain
4:34 PM 69.8 °F - 60.8 °F 73% 29.98 in 7.0 mi Calm Calm - N/A Rain Rain
4:35 PM 69.8 °F - 60.8 °F 73% 29.99 in 6.0 mi Calm Calm - N/A Rain Rain
4:39 PM 68.0 °F - 60.8 °F 78% 29.98 in 2.0 mi SE 3.5 mph - N/A Rain Rain
4:40 PM 68.0 °F - 60.8 °F 78% 29.98 in 1.8 mi SE 4.6 mph - N/A Rain Rain
4:41 PM 68.0 °F - 60.8 °F 78% 29.98 in 1.8 mi SE 4.6 mph - N/A Rain Heavy Rain
4:49 PM 66.2 °F - 62.6 °F 88% 29.99 in 2.0 mi SE 4.6 mph - N/A Rain Rain
4:51 PM 66.2 °F - 62.6 °F 88% 29.99 in 3.0 mi SE 3.5 mph - N/A Rain Rain
4:55 PM 65.8 °F - 63.0 °F 90% 29.99 in 4.0 mi Calm Calm - 0.16 in Rain Rain
5:14 PM 64.4 °F - 62.6 °F 94% 29.98 in 10.0 mi SE 3.5 mph - N/A   Overcast
5:16 PM 64.4 °F - 62.6 °F 94% 29.98 in 10.0 mi SE 3.5 mph - N/A   Light Drizzle
5:32 PM 64.4 °F - 62.6 °F 94% 29.98 in 7.0 mi SE 4.6 mph - N/A Rain Light Rain
5:55 PM 63.1 °F - 62.8 °F 99% 29.97 in 6.0 mi East 3.5 mph - 0.06 in Rain Light Rain
5:56 PM 62.6 °F - 62.6 °F 100% 29.97 in 6.0 mi East 3.5 mph - N/A Rain Light Rain
5:58 PM 62.6 °F - 62.6 °F 100% 29.97 in 7.0 mi Calm Calm - N/A Rain Light Rain
6:07 PM 62.6 °F - 62.6 °F 100% 29.97 in 10.0 mi ENE 4.6 mph - N/A Rain Light Rain
6:18 PM 62.6 °F - 62.6 °F 100% 29.97 in 10.0 mi East 5.8 mph - N/A   Overcast
6:32 PM 62.6 °F - 62.6 °F 100% 29.98 in 10.0 mi NW 5.8 mph - N/A   Light Drizzle
6:50 PM 62.6 °F - 62.6 °F 100% 29.98 in 5.0 mi Calm Calm - N/A Rain Light Rain
6:55 PM 62.4 °F - 62.2 °F 99% 29.98 in 6.0 mi NNE 3.5 mph - 0.04 in Rain Light Rain
7:04 PM 62.6 °F - 62.6 °F 100% 29.98 in 7.0 mi Calm Calm - N/A Rain Light Rain
7:49 PM 62.6 °F - 62.6 °F 100% 29.99 in 2.5 mi Calm Calm - N/A Rain Heavy Rain
7:51 PM 62.6 °F - 62.6 °F 100% 29.99 in 2.5 mi Calm Calm - N/A Rain Heavy Rain
7:53 PM 62.6 °F - 62.6 °F 100% 29.99 in 2.5 mi SE 4.6 mph - N/A Rain Light Rain
7:54 PM 62.6 °F - 62.6 °F 100% 29.99 in 2.5 mi ESE 4.6 mph - N/A Rain Light Rain
7:55 PM 63.0 °F - 63.0 °F 100% 29.99 in 3.0 mi ESE 4.6 mph - 0.10 in Rain Light Rain
8:03 PM 62.6 °F - 62.6 °F 100% 29.99 in 10.0 mi Calm Calm - N/A   Overcast
8:05 PM 62.6 °F - 62.6 °F 100% 29.99 in 9.0 mi ESE 4.6 mph - N/A Rain Light Rain
8:14 PM 62.6 °F - 62.6 °F 100% 29.99 in 4.0 mi SE 4.6 mph - N/A Rain Light Rain
8:21 PM 62.6 °F - 62.6 °F 100% 29.99 in 5.0 mi SE 5.8 mph - N/A Rain Light Rain
8:24 PM 62.6 °F - 62.6 °F 100% 29.99 in 5.0 mi SSE 4.6 mph - N/A Rain Light Rain
8:25 PM 62.6 °F - 62.6 °F 100% 29.99 in 6.0 mi SSE 4.6 mph - N/A Rain Light Rain
8:29 PM 62.6 °F - 62.6 °F 100% 29.98 in 8.0 mi SE 5.8 mph - N/A   Light Drizzle
8:36 PM 62.6 °F - 62.6 °F 100% 29.98 in 10.0 mi SE 4.6 mph - N/A   Light Drizzle
8:38 PM 62.6 °F - 62.6 °F 100% 29.98 in 10.0 mi SE 4.6 mph - N/A   Light Drizzle
8:49 PM 62.6 °F - 62.6 °F 100% 29.99 in 3.0 mi Calm Calm - N/A Rain Heavy Rain
8:50 PM 62.6 °F - 62.6 °F 100% 29.99 in 2.5 mi Calm Calm - N/A Rain Heavy Rain
8:51 PM 62.6 °F - 62.6 °F 100% 29.99 in 2.5 mi Calm Calm - N/A Rain Heavy Rain
8:52 PM 62.6 °F - 62.6 °F 100% 29.99 in 2.5 mi Calm Calm - N/A Rain Heavy Rain
8:54 PM 62.6 °F - 62.6 °F 100% 29.99 in 2.5 mi Calm Calm - N/A Rain Heavy Rain
8:55 PM 63.3 °F - 63.3 °F 100% 29.99 in 2.5 mi Calm Calm - 0.17 in Rain Rain
9:00 PM 62.6 °F - 62.6 °F 100% 29.99 in 3.0 mi SE 5.8 mph - N/A Rain Light Rain
9:01 PM 62.6 °F - 62.6 °F 100% 29.99 in 3.0 mi SE 5.8 mph - N/A Rain Light Rain
9:03 PM 62.6 °F - 62.6 °F 100% 29.99 in 4.0 mi SSE 5.8 mph - N/A Rain Light Rain
9:07 PM 62.6 °F - 62.6 °F 100% 29.99 in 2.5 mi SE 6.9 mph - N/A Rain Rain
9:11 PM 62.6 °F - 62.6 °F 100% 29.98 in 1.8 mi SE 6.9 mph - N/A Rain Heavy Rain
9:12 PM 62.6 °F - 62.6 °F 100% 29.98 in 1.8 mi SE 6.9 mph - N/A Rain Heavy Rain
9:13 PM 62.6 °F - 62.6 °F 100% 29.98 in 1.8 mi SE 6.9 mph - N/A Rain Heavy Rain
9:15 PM 62.6 °F - 62.6 °F 100% 29.98 in 2.0 mi SE 8.1 mph - N/A Rain Heavy Rain
9:16 PM 62.6 °F - 62.6 °F 100% 29.98 in 2.0 mi SE 9.2 mph - N/A Rain Heavy Rain
9:17 PM 64.4 °F - 64.4 °F 100% 29.98 in 2.5 mi SE 9.2 mph - N/A Rain Light Rain
9:18 PM 64.4 °F - 64.4 °F 100% 29.98 in 3.0 mi SE 8.1 mph - N/A Rain Light Rain
9:26 PM 64.4 °F - 64.4 °F 100% 29.98 in 10.0 mi SE 8.1 mph - N/A   Overcast
9:27 PM 64.4 °F - 64.4 °F 100% 29.98 in 10.0 mi ESE 9.2 mph - N/A   Overcast
9:28 PM 64.4 °F - 64.4 °F 100% 29.98 in 10.0 mi ESE 9.2 mph - N/A   Overcast
9:35 PM 64.4 °F - 64.4 °F 100% 29.97 in 10.0 mi East 5.8 mph - N/A   Overcast
9:45 PM 64.4 °F - 64.4 °F 100% 29.97 in 10.0 mi SE 3.5 mph - N/A   Overcast
9:49 PM 64.4 °F - 64.4 °F 100% 29.97 in 7.0 mi SE 5.8 mph - N/A Rain Light Rain
9:55 PM 64.2 °F - 64.2 °F 100% 29.97 in 4.0 mi SE 5.8 mph - 0.22 in Rain Light Rain
9:56 PM 64.4 °F - 64.4 °F 100% 29.97 in 4.0 mi SSE 5.8 mph - N/A Rain Light Rain
9:57 PM 64.4 °F - 64.4 °F 100% 29.97 in 4.0 mi SSE 5.8 mph - N/A Rain Light Rain
9:58 PM 64.4 °F - 64.4 °F 100% 29.97 in 5.0 mi SE 5.8 mph - N/A Rain Light Rain
10:07 PM 64.4 °F - 64.4 °F 100% 29.97 in 9.0 mi SE 6.9 mph - N/A Rain Light Rain
10:10 PM 64.4 °F - 64.4 °F 100% 29.97 in 9.0 mi SE 8.1 mph - N/A   Light Drizzle
10:11 PM 64.4 °F - 64.4 °F 100% 29.97 in 9.0 mi SE 6.9 mph - N/A   Overcast
10:13 PM 64.4 °F - 64.4 °F 100% 29.97 in 9.0 mi SE 6.9 mph - N/A   Overcast
10:17 PM 64.4 °F - 64.4 °F 100% 29.96 in 9.0 mi SE 5.8 mph - N/A Rain Light Rain
10:19 PM 64.4 °F - 64.4 °F 100% 29.96 in 9.0 mi SE 5.8 mph - N/A   Light Drizzle
10:27 PM 64.4 °F - 64.4 °F 100% 29.97 in 8.0 mi SE 4.6 mph - N/A   Light Drizzle
10:31 PM 64.4 °F - 64.4 °F 100% 29.97 in 9.0 mi SE 4.6 mph - N/A   Overcast
10:43 PM 64.4 °F - 64.4 °F 100% 29.96 in 9.0 mi Calm Calm - N/A   Overcast
10:52 PM 64.4 °F - 64.4 °F 100% 29.96 in 9.0 mi SSE 4.6 mph - N/A   Overcast
10:53 PM 64.4 °F - 64.4 °F 100% 29.96 in 9.0 mi SSE 4.6 mph - N/A   Overcast
10:55 PM 64.6 °F - 64.6 °F 100% 29.96 in 9.0 mi SE 4.6 mph - 0.01 in   Overcast
11:01 PM 64.4 °F - 64.4 °F 100% 29.96 in 10.0 mi SSE 5.8 mph - N/A Rain Light Rain
11:09 PM 64.4 °F - 64.4 °F 100% 29.96 in 8.0 mi SSE 5.8 mph - N/A Rain Light Rain
11:20 PM 64.4 °F - 64.4 °F 100% 29.96 in 3.0 mi South 5.8 mph - N/A Rain Light Rain
11:37 PM 64.4 °F - 64.4 °F 100% 29.95 in 5.0 mi South 6.9 mph - N/A Rain Light Rain
11:49 PM 64.4 °F - 64.4 °F 100% 29.94 in 6.0 mi South 6.9 mph - N/A   Mostly Cloudy
11:52 PM 64.4 °F - 64.4 °F 100% 29.94 in 6.0 mi South 6.9 mph - N/A Rain Light Rain
11:55 PM 65.1 °F - 65.1 °F 100% 29.94 in 6.0 mi South 6.9 mph - 0.07 in Rain Light Rain